Location: Lecco
(45.8566°N, 9.3977°E)
Time: 03:11:11
(UTC+02:00)

S-56A Canister/Altair - Pass Details

Date: 25 July 2019
Orbit: 633 x 2499 km, 38.9° (Epoch: 21 August)

Event Time Altitude Azimuth Distance (km) Brightness Sun altitude
Rises 09:41:03 0° 264° (W) 5,208 11.3 36.8°
Reaches altitude 10° 09:44:08 10° 262° (W) 4,421 11.0 37.3°
Maximum altitude 09:56:47 65° 184° (S) 2,572 10.9 39.5°
Drops below altitude 10° 10:11:42 10° 108° (ESE) 5,123 12.9 42.0°
Sets 10:15:36 0° 106° (ESE) 6,052 12.9 42.7°
